Tracking 32579 objects as of 16-Dec-2025
HD Live streaming from Space Station
objects crossing your sky now

METEOR 1-17 DEB

Track METEOR 1-17 DEB now!
10-day predictions


NORAD ID: 57726
Int'l Code: 1991-033P
Perigee: 821.4 km
Apogee: 836.9 km
Inclination: 81.2 °
Period: 101.3 minutes
Semi major axis: 7200 km
RCS: Unknown
Launch date: May 16, 1991
Source: Commonwealth of Independent States (former USSR) (CIS)
Launch site: PLESETSK MISSILE AND SPACE COMPLEX (PKMTR)
Your satellite tracking list
Your tracking list is empty




NASA's NSSDC Master Catalog

Two Line Element Set (TLE):
1 57726U 74025M   25349.35633374  .00004380  00000-0  20148-2 0  9994
2 57726  81.2062 108.3959 0010808 145.5488 214.6392 14.20986044118921
Source of the keplerian elements: AFSPC